Regional Weather Roundup
Issued by NWS

Home | Current Version | Previous Version | Graphics & Text | Print | Product List | Glossary On
Versions: 1 2 3 4 5 6 7 8 9 10 11 12 13 14 15 16 17 18 19 20 21 22 23 24 25 26 27 28 29 30 31 32 33 34 35 36 37 38 39 40 41 42 43 44 45 46 47 48 49 50
000
ASUS43 KFSD 010402
RWRSD

WEATHER ROUNDUP FOR SOUTH DAKOTA
NATIONAL WEATHER SERVICE SIOUX FALLS SD
1100 PM CDT SAT APR 30 2016

NOTE: "FAIR" INDICATES FEW OR NO CLOUDS BELOW 12,000 FEET WITH NO
SIGNIFICANT WEATHER AND/OR OBSTRUCTIONS TO VISIBILITY.


SDZ001>005-009-010-012>017-010500-
NORTHWEST AND NORTH CENTRAL SOUTH DAKOTA

CITY           SKY/WX    TMP DP  RH WIND       PRES   REMARKS
BUFFALO          N/A     41  29  62 N9        30.21R
FAITH            N/A     39  29  67 N8        30.22R
MOBRIDGE       CLOUDY    46  30  53 N9        30.18R
$$

SDZ012>016-024>037-041>051-057-063-072>074-010500-
SOUTHWEST AND SOUTH CENTRAL SOUTH DAKOTA

CITY           SKY/WX    TMP DP  RH WIND       PRES   REMARKS
RAPID CTY ARPT CLOUDY    38  30  73 N10       30.22R
PIERRE         CLOUDY    42  35  76 N9        30.14R
CUSTER         CLOUDY    35  25  66 N13G28    30.18R WCI  26
ELLSWORTH AFB  CLOUDY    44  30  59 N10       30.21R
PHILIP         CLOUDY    44  33  65 N12       30.17R
PINE RIDGE     LGT RAIN  40  36  86 NE7       30.17R
WINNER         LGT RAIN  43  39  86 NE10      30.13R
$$

SDZ004>011-016>023-039-040-010500-
NORTHEAST SOUTH DAKOTA

CITY           SKY/WX    TMP DP  RH WIND       PRES   REMARKS
ABERDEEN       CLOUDY    44  32  62 N7        30.16R
WATERTOWN      CLOUDY    46  32  58 NE13G22   30.12R
BROOKINGS      CLOUDY    47  36  65 NE12      30.08R
SISSETON         N/A     45  32  60 SE5       30.16R
$$

SDZ017-020-022-023-036>040-048>070-010500-
SOUTHEAST SOUTH DAKOTA

CITY           SKY/WX    TMP DP  RH WIND       PRES   REMARKS
SIOUX FALLS    CLOUDY    44  40  85 E15G22    30.06R
HURON          CLOUDY    48  38  68 NE9       30.11R
MITCHELL       LGT RAIN  45  42  89 NE8       30.11R
YANKTON        CLOUDY    45  39  81 NE21      30.03R
$$

ABBREVIATIONS USED IN REMARKS
   TC - TEMPERATURE IN CELSIUS
  WCI - WIND CHILL INDEX
   HX - HEAT INDEX
  VSB - VISIBILITY





USA.gov is the U.S. government's official web portal to all federal, state and local government web resources and services.